Powrót do katalogu

STARLINK-32770

AktywnyŁącznośćVLEO
NORAD 62741·PAYLOAD·🇺🇸 United States

Wystrzelony Jan 21, 2025 z Cape Canaveral Space Force Station

Loading…

Następne Przeloty (najbliższe 24 godziny)

TLE

ŚwieżeSource: CelesTrak SupGP

Epoka: Sep 15, 2026, 02:41 UTC

1 62741C 25014G   26258.11229167  .00000940  00000+0  34050-4 0  2580
2 62741  43.0025 164.4308 0001382 273.7565 298.1252 15.27570436    11

Śledź STARLINK-32770 w czasie rzeczywistym z AllMySat

Download on the App Store